Location: Unspecified
(0.0000°N, 0.0000°E)
Time: 09:09:58
(UTC+00:00)

NOAA 15 - Visible Passes

Search period start: 02 December 2023 00:00
Search period end: 12 December 2023 00:00
Orbit: 796 x 811 km, 98.6° (Epoch: 01 December)

Date Brightness Start Highest point End Pass type
(mag) Time Alt. Az. Time Alt. Az. Time Alt. Az.
02 Dec 4.9 18:53:30 10° SSE 18:58:29 42° ENE 19:03:27 10° N visible
02 Dec 7.5 20:35:58 10° SW 20:37:56 12° WSW 20:39:54 10° W visible
03 Dec 5.7 18:29:05 10° SE 18:33:00 21° ENE 18:36:53 10° NNE visible
03 Dec 6.7 20:08:11 10° SSW 20:12:27 25° WSW 20:16:43 10° NW visible
04 Dec 5.4 19:41:50 10° S 19:46:58 50° WSW 19:52:05 10° NNW visible
05 Dec 4.5 19:16:09 10° SSE 19:21:28 80° ENE 19:26:45 10° N visible
06 Dec 5.0 18:51:02 10° SE 18:55:57 39° ENE 19:00:51 10° N visible
06 Dec 7.5 20:33:03 10° SW 20:35:24 13° WSW 20:37:45 10° WNW visible
07 Dec 5.8 18:26:43 10° ESE 18:30:28 20° ENE 18:34:11 10° NNE visible
07 Dec 6.6 20:05:32 10° SSW 20:09:56 27° WSW 20:14:19 10° NW visible
08 Dec 5.3 19:39:16 10° S 19:44:26 54° WSW 19:49:35 10° NNW visible
09 Dec 4.5 19:13:37 10° SSE 19:18:55 75° ENE 19:24:11 10° N visible
10 Dec 5.1 18:48:34 10° SE 18:53:25 36° ENE 18:58:13 10° NNE visible
10 Dec 7.4 20:30:11 10° SW 20:32:51 14° WSW 20:35:31 10° WNW visible
11 Dec 5.9 18:24:21 10° ESE 18:27:54 18° ENE 18:31:27 10° NE visible
11 Dec 6.5 20:02:53 10° SSW 20:07:22 28° WSW 20:11:52 10° NW visible
